This demonstration page uses our WeatherBlox Daily Observations layout. Learn more.

39.92423, -83.80882

Hourly Observations for September 28, 2016

Temp ( °F °C ) Dew Point ( °F °C ) Humidity (%) Winds ( mph kmh ) Pressure ( in mb ) Visibility ( mi km ) Precip ( " mm )
12:56 am 00:56 Clear 58 14.4 47 8.3 67 67 S 7 11 29.85 1011 10 16.0934 0 0
1:56 am 01:56 Clear 60 15.6 47 8.3 62 62 SSW 9 15 29.85 1011 10 16.0934 0 0
2:56 am 02:56 Clear 58 14.4 47 8.3 67 67 S 7 11 29.85 1011 10 16.0934 0 0
3:56 am 03:56 Clear 57 13.9 47 8.3 69 69 S 8 13 29.83 1010 10 16.0934 0 0
4:56 am 04:56 Partly Cloudy 56 13.3 47 8.3 72 72 S 7 11 29.82 1010 10 16.0934 0 0
5:56 am 05:56 Cloudy 58 14.4 48 8.9 70 70 S 9 15 29.81 1009 10 16.0934 0 0.0254
6:56 am 06:56 Cloudy 58 14.4 47 8.3 67 67 VRB 6 9 29.81 1010 10 16.0934 0 0
7:56 am 07:56 Cloudy 55 12.8 51 10.6 87 87 NNW 3 6 29.85 1011 10 16.0934 0.01 0.254
8:56 am 08:56 Cloudy with Nearby Thunderstorms 55 12.8 53 11.7 93 93 NNE 5 7 29.85 1011 10 16.0934 0.01 0.254
9:10 am 09:10 Cloudy with Nearby Thunderstorms 55 13 54 12 94 94 SW 6 9 29.88 1012 6 9.65604 0.07 1.778
9:29 am 09:29 Cloudy with Thunderstorms 54 12 54 12 100 100 E 7 11 29.85 1011 4 6.43736 0.16 4.064
9:50 am 09:50 Cloudy with Heavy Thunderstorms 54 12 54 12 100 100 E 3 6 29.88 1012 1.75 2.816345 0.22 5.588
9:56 am 09:56 Cloudy with Heavy Thunderstorms 54 12.2 53 11.7 97 97 ESE 7 11 29.88 1012 1.75 2.816345 0.25 6.35
10:00 am 10:00 Cloudy with Rain 54 12 54 12 100 100 SE 6 9 29.88 1012 3 4.82802 0.02 0.508
10:17 am 10:17 Cloudy with Heavy Rain 54 12 54 12 100 100 ESE 7 11 29.88 1012 2 3.21868 0.08 2.032
10:32 am 10:32 Cloudy with Rain 54 12 54 12 100 100 ESE 9 15 29.88 1012 4 6.43736 0.13 3.302
10:56 am 10:56 Cloudy with Light Rain 54 12.2 53 11.7 97 97 ESE 13 20 29.86 1011 4 6.43736 0.17 4.318
11:56 am 11:56 Cloudy with Light Rain 56 13.3 54 12.2 93 93 ESE 14 22 29.86 1011 10 16.0934 0.25 6.35
12:10 pm 12:10 Cloudy with Light Rain 57 14 55 13 94 94 ESE 16 26 29.85 1011 10 16.0934 0 0.0254
12:56 pm 12:56 Cloudy 60 15.6 56 13.3 86 86 E 9 15 29.87 1012 10 16.0934 0 0.0254
1:21 pm 13:21 Cloudy 57 14 55 13 94 94 E 12 19 29.85 1011 10 16.0934 0 0
1:35 pm 13:35 Cloudy with Nearby Thunderstorms 57 14 55 13 94 94 ESE 9 15 29.88 1012 10 16.0934 0.01 0.254
1:56 pm 13:56 Cloudy with Heavy Rain 57 13.9 54 12.2 90 90 E 7 11 29.88 1012 5 8.0467 0.03 0.762
1:58 pm 13:58 Cloudy with Heavy Rain 57 14 54 12 88 88 ESE 8 13 29.88 1012 4 6.43736 0 0.0254
2:12 pm 14:12 Cloudy with Heavy Rain 55 13 54 12 94 94 ESE 6 9 29.88 1012 5 8.0467 0.1 2.54
2:56 pm 14:56 Cloudy with Heavy Rain 56 13.3 55 12.8 97 97 ENE 6 9 29.88 1012 4 6.43736 0.3 7.62
3:08 pm 15:08 Cloudy with Heavy Rain 55 13 55 13 100 100 NNE 6 9 29.88 1012 3 4.82802 0.07 1.778
3:19 pm 15:19 Cloudy with Heavy Rain 55 13 55 13 100 100 NNE 7 11 29.88 1012 4 6.43736 0.18 4.572
3:56 pm 15:56 Cloudy with Rain 56 13.3 55 12.8 97 97 NE 8 13 29.88 1012 6 9.65604 0.38 9.652
4:03 pm 16:03 Cloudy with Rain 55 13 55 13 100 100 E 12 19 29.88 1012 7 11.26538 0.02 0.508
4:56 pm 16:56 Cloudy with Light Rain 56 13.3 54 12.2 93 93 ESE 14 22 29.86 1011 10 16.0934 0.1 2.54
5:03 pm 17:03 Cloudy with Light Rain 55 13 54 12 94 94 E 15 24 29.83 1010 10 16.0934 0.01 0.254
5:56 pm 17:56 Mostly Sunny 58 14.4 55 12.8 90 90 ESE 6 9 29.88 1012 10 16.0934 0.02 0.508
6:35 pm 18:35 Mostly Sunny 57 14 55 13 94 94 E 8 13 29.91 1013 10 16.0934 0 0
6:56 pm 18:56 Mostly Cloudy 57 13.9 55 12.8 93 93 Calm 29.91 1013 10 16.0934 0 0
7:56 pm 19:56 Cloudy 56 13.3 55 12.8 97 97 N 5 7 29.91 1013 10 16.0934 0 0
8:56 pm 20:56 Cloudy 54 12.2 53 11.7 97 97 Calm 29.94 1014 10 16.0934 0 0
9:21 pm 21:21 Mostly Cloudy with Mist and Fog 54 12 52 11 94 94 Calm 29.94 1014 1 1.60934 0 0
9:25 pm 21:25 Partly Cloudy with Fog 54 12 52 11 94 94 Calm 29.94 1014 0.5 0.80467 0 0
9:32 pm 21:32 Mostly Cloudy with Fog 54 12 52 11 94 94 Calm 29.94 1014 0.5 0.80467 0 0
9:40 pm 21:40 Mostly Cloudy with Fog 54 12 52 11 94 94 Calm 29.94 1014 0.25 0.402335 0 0
9:56 pm 21:56 Cloudy with Fog 52 11.1 52 11.1 100 100 Calm 29.95 1014 0.25 0.402335 0 0
10:03 pm 22:03 Cloudy with Fog 54 12 54 12 100 100 Calm 29.94 1014 0.5 0.80467 0 0
10:07 pm 22:07 Cloudy with Mist and Fog 54 12 54 12 100 100 Calm 29.94 1014 1 1.60934 0 0
10:15 pm 22:15 Cloudy with Mist and Fog 54 12 54 12 100 100 Calm 29.94 1014 2 3.21868 0 0
10:24 pm 22:24 Cloudy with Mist and Fog 54 12 54 12 100 100 Calm 29.94 1014 5 8.0467 0 0
10:31 pm 22:31 Cloudy with Mist and Fog 54 12 54 12 100 100 ENE 3 6 29.94 1014 1.5 2.41401 0 0
10:34 pm 22:34 Cloudy with Mist and Fog 52 11 52 11 100 100 E 3 6 29.94 1014 0.75 1.207005 0 0
10:43 pm 22:43 Mostly Cloudy with Mist and Fog 52 11 52 11 100 100 Calm 29.94 1014 1.25 2.011675 0 0
10:49 pm 22:49 Mostly Cloudy with Mist and Fog 54 12 54 12 100 100 Calm 29.94 1014 1 1.60934 0 0
10:52 pm 22:52 Mostly Cloudy with Fog 52 11 52 11 100 100 Calm 29.94 1014 0.5 0.80467 0 0
10:56 pm 22:56 Mostly Cloudy with Fog 53 11.7 52 11.1 96 96 Calm 29.95 1014 0.25 0.402335 0 0
11:40 pm 23:40 Mostly Cloudy with Fog 52 11 52 11 100 100 Calm 29.94 1014 0.5 0.80467 0 0
11:56 pm 23:56 Mostly Cloudy with Fog 51 10.6 50 10 96 96 SW 5 7 29.95 1014 0.5 0.80467 0 0

Powered by AerisWeather